sat.trackr.live / text

‹ back to catalog

STARLINK-31001

NORAD 58527 · 2023-191V

PAYLOAD ACTIVE UNKNOWN

§ Identity

Operator
Country
US
Launch date
2023-12-07
Launch site
AFETR
Launch vehicle
Mass (kg)
RCS (m²)

Purposes: comms

External: N2YO · Heavens-Above · Gunter

§ Orbital elements

Epoch: 2026-05-25T01:58:18.330240Z

Period
94.27 min
Inclination
43.0074°
Eccentricity
0.0001450
Mean motion
15.27587969 rev/d
Perigee alt
482.0 km
Apogee alt
484.0 km
Semi-major
6,861.2 km
B*
5.7167e-5
RAAN
31.9922°
Arg perigee
249.3080°
Mean anomaly
110.7616°
Rev number
13,715

§ Raw data

STARLINK-310011 58527U 23191V   26145.08215660  .00001311  00000+0  57167-4 0  99942 58527  43.0074  31.9922 0001450 249.3080 110.7616 15.27587969137157

JSON: /api/v1/satellites/58527 · /tle

For live sub-satellite position, see the globe view (requires WebGL).

§ Visibility from observer

Set your observer location to see the next 7 days of passes ≥ 10°. The values pass through the URL so the page stays shareable.

No JS? Fill the form by hand. The geolocation button needs JavaScript.